Regional Weather Roundup
Issued by NWS

Home | Current Version | Previous Version | Text Only | Print | Product List | Glossary Off
Versions: 1 2 3 4 5 6 7 8 9 10 11 12 13 14 15 16 17 18 19 20 21 22 23 24 25 26 27 28 29 30 31 32 33 34 35 36 37 38 39 40 41 42 43 44 45 46 47 48 49 50

000
ASUS45 KABQ 031001
RWRNM
WEATHER ROUNDUP FOR NEW MEXICO
NATIONAL WEATHER SERVICE ALBUQUERQUE NM
400 AM MDT SUN MAY 03 2015

NOTE: "FAIR" MEANS FEW OR NO CLOUDS BELOW 12,000 FEET AGL WITH NO
       SIGNIFICANT WEATHER OR OBSTRUCTIONS TO VISION.

      THIS PRODUCT IS RELEASED AS TWO VERSIONS.  ONE VERSION NEAR
      THE TOP OF THE HOUR CONTAINING PRELIMINARY DATA FROM ALBUQUERQUE
      AND OTHER STATIONS.  A FINAL VERSION WITH ADDITIONAL DATA IS
      ISSUED ABOUT 10 MINUTES AFTER THE HOUR.

NMZ501-503-504-510>518-031100-
NORTHWEST PLATEAU/NORTHCENTRAL MOUNTAINS

CITY           SKY/WX    TMP DP  RH WIND       PRES   REMARKS
FARMINGTON     MOCLDY    53  36  52 E7        30.02S
SANTA FE       PTCLDY    45  34  65 N7        30.08S
TAOS           PTCLDY    37  27  65 CALM      30.12S
ANGEL FIRE     FAIR      35  32  89 CALM      30.18S

$$
NMZ402-403-502-505>509-031100-
WESTCENTRAL MOUNTAINS/SOUTHWEST MOUNTAINS

CITY           SKY/WX    TMP DP  RH WIND       PRES   REMARKS
GALLUP         MOCLDY    45  38  76 N5        30.10S
GRANTS         MOCLDY    36  33  91 CALM      30.12S
SILVER CITY      N/A     52  36  54 N9        30.07S

$$
NMZ407-409-411-412-031100-
SOUTHERN DESERTS

CITY           SKY/WX    TMP DP  RH WIND       PRES   REMARKS
DEMING         CLEAR     58  39  49 N6        29.99F
ALAMOGORDO     PTCLDY    66  32  28 E6        29.99F
T OR C         CLOUDY    67  35  30 S3        30.01S

$$
NMZ519>523-031100-
CENTRAL VALLEYS/CENTRAL HIGHLANDS

CITY           SKY/WX    TMP DP  RH WIND       PRES   REMARKS
ALBUQUERQUE    PTCLDY    56  35  45 S3        30.05S
DOUBLE EAGLE   PTCLDY    49  36  60 CALM      30.08R
MORIARTY ARPT  FAIR      41  33  72 E3        30.10S
CLINES CORNERS CLOUDY    52  31  44 W7        30.10S
BELEN          CLOUDY    56  38  51 SE7       30.04S
SOCORRO        NOT AVBL

$$
NMZ524>526-539-540-031100-
SOUTHCENTRAL MOUNTAINS

CITY           SKY/WX    TMP DP  RH WIND       PRES   REMARKS
RUIDOSO        NOT AVBL

$$
NMZ527>531-031100-
NORTHEAST HIGHLANDS/NORTHEAST PLAINS

CITY           SKY/WX    TMP DP  RH WIND       PRES   REMARKS
LAS VEGAS      PTCLDY    44  32  62 CALM      30.09S
RATON          PTCLDY    46  34  62 N10       30.03F
CLAYTON        CLEAR     59  38  45 W13       29.95F

$$
NMZ532>537-031100-
EASTCENTRAL PLAINS

CITY           SKY/WX    TMP DP  RH WIND       PRES   REMARKS
TUCUMCARI      MOCLDY    60  41  49 W9        29.91F
CANNON AFB     NOT AVBL
CLOVIS AIRPORT PTCLDY    54  41  62 S5        29.97F

$$
NMZ028-029-538-031100-
SOUTHEAST PLAINS

CITY           SKY/WX    TMP DP  RH WIND       PRES   REMARKS
ROSWELL        CLEAR     55  43  63 S3        29.92F
ARTESIA        CLEAR     59  48  67 S8        29.94R
CARLSBAD       CLEAR     58  46  64 S7        29.90R
HOBBS          PTCLDY    57  45  62 S10       29.96F


$$


USA.gov is the U.S. government's official web portal to all federal, state and local government web resources and services.